Location: Gerlach
(40.6516°N, 119.3568°W)
Time: 19:38:34
(UTC-08:00)

SR - Visible Passes

Search period start: 07 February 2023 00:00
Search period end: 17 February 2023 00:00
Orbit: 581 x 869 km, 66.7° (Epoch: 07 February)

Date Brightness Start Highest point End Pass type
(mag) Time Alt. Az. Time Alt. Az. Time Alt. Az.
14 Feb ? 19:24:53 10° N 19:25:41 13° N 19:25:41 13° N visible
15 Feb ? 18:36:53 10° NE 18:36:56 10° NE 18:36:56 10° NE visible
15 Feb ? 20:15:29 10° NNW 20:16:19 16° NNW 20:16:19 16° NNW visible
16 Feb ? 19:25:16 10° NNW 19:27:39 26° NNE 19:27:39 26° NNE visible
